This is the latest recevied weather packets stored in our database for station/object SQ9NFI-4. If no packets are shown the sender has not sent any weather packets the latest 10 day(s).
| Time | Temp. | Humidity | Pressure | Rain* | Wind** | Luminosity | Snow |
|---|---|---|---|---|---|---|---|
| 1777792516 | 21.11° C | 38% | 1020 hPa | 0 mm | - | 456 W/m² | - |
| 1777792216 | 20.56° C | 37% | 1020 hPa | 0 mm | - | 445 W/m² | - |
| 1777791916 | 20.56° C | 38% | 1020 hPa | 0 mm | - | 429 W/m² | - |
| 1777791616 | 20° C | 39% | 1020 hPa | 0 mm | - | 419 W/m² | - |
| 1777791316 | 20.56° C | 39% | 1020 hPa | 0 mm | - | 407 W/m² | - |
| 1777791016 | 20° C | 41% | 1020 hPa | 0 mm | - | 395 W/m² | - |
| 1777790716 | 20° C | 41% | 1020 hPa | 0 mm | - | 381 W/m² | - |
| 1777790416 | 19.44° C | 40% | 1020 hPa | 0 mm | - | 367 W/m² | - |
| 1777790116 | 19.44° C | 43% | 1020 hPa | 0 mm | - | 356 W/m² | - |
| 1777789816 | 18.33° C | 41% | 1020 hPa | 0 mm | - | 340 W/m² | - |
| 1777789516 | 18.33° C | 42% | 1020 hPa | 0 mm | - | 328 W/m² | - |
| 1777789216 | 17.78° C | 42% | 1020 hPa | 0 mm | - | 314 W/m² | - |
| 1777788916 | 17.78° C | 41% | 1020 hPa | 0 mm | - | 301 W/m² | - |
| 1777788616 | 17.22° C | 42% | 1020 hPa | 0 mm | - | 282 W/m² | - |
| 1777788316 | 17.22° C | 43% | 1020 hPa | 0 mm | - | 279 W/m² | - |
| 1777788016 | 16.67° C | 43% | 1020 hPa | 0 mm | - | 271 W/m² | - |
| 1777787716 | 16.67° C | 43% | 1020 hPa | 0 mm | - | 255 W/m² | - |
| 1777787416 | 16.67° C | 47% | 1020 hPa | 0 mm | - | 240 W/m² | - |
| 1777787116 | 16.11° C | 46% | 1020 hPa | 0 mm | - | 213 W/m² | - |
| 1777786816 | 15.56° C | 57% | 1020 hPa | 0 mm | - | 186 W/m² | - |
| 1777786516 | 14.44° C | 63% | 1020 hPa | 0 mm | - | 169 W/m² | - |
| 1777786216 | 13.89° C | 63% | 1020 hPa | 0 mm | - | 149 W/m² | - |
| 1777785916 | 14.44° C | 64% | 1020 hPa | 0 mm | - | 135 W/m² | - |
| 1777785616 | 13.89° C | 69% | 1020 hPa | 0 mm | - | 122 W/m² | - |
| 1777785316 | 12.78° C | 63% | 1020 hPa | 0 mm | - | 109 W/m² | - |
* Rain latest hour (hover to see other rain measurements)
** Current wind speed in m/s (hover to see current wind gust speed)